Regional Weather Roundup
Issued by NWS

Home | Current Version | Previous Version | Text Only | Print | Product List | Glossary Off
Versions: 1 2 3 4 5 6 7 8 9 10 11 12 13 14 15 16 17 18 19 20 21 22 23 24 25 26 27 28 29 30 31 32 33 34 35 36 37 38 39 40 41 42 43 44 45 46 47 48 49 50

143
ASUS45 KTFX 040810
RWRMT
MONTANA REGIONAL WEATHER ROUNDUP
NATIONAL WEATHER SERVICE GREAT FALLS MT
100 AM MST SUN DEC 04 2016

NOTE: "FAIR" INDICATES FEW OR NO CLOUDS BELOW 12000 FEET WITH NO
SIGNIFICANT WEATHER AND/OR OBSTRUCTIONS TO VISIBILITY.

MTZ001>007-043-040900-
WEST OF THE DIVIDE

CITY           SKY/WX    TMP DP  RH WIND       PRES   REMARKS
KALISPELL      CLOUDY    34  30  85 S6        29.90F WCI  29
MISSOULA       LGT SNOW  31  31 100 SE5       30.00F FOG
BUTTE          CLOUDY    29  15  56 S3        29.95F
MULLAN PASS    LGT SNOW  24  22  91 SW12G22   29.87F VSB 1   WCI  13
ANACONDA         N/A     30  16  55 S7        29.95F WCI  23
DEER LODGE       N/A     28  19  69 CALM      29.97F
EUREKA           N/A     36  28  75 SE10G16   29.87F WCI  28
HAMILTON         N/A     37  23  56 SE14      30.00S WCI  29
LIBBY            N/A     36  32  87 SE7       29.89F WCI  30
PLAINS           N/A     35  29  79 CALM      29.97F
RONAN            N/A     36  28  73 CALM      29.99F
$$

MTZ008-052>055-040900-
SOUTHWEST MONTANA

CITY           SKY/WX    TMP DP  RH WIND       PRES   REMARKS
BOZEMAN        CLOUDY    34  16  47 SW13      29.97F WCI  25
DILLON         CLOUDY    24  13  62 S14       30.00F WCI  12
W YELLOWSTONE  CLOUDY    19  19 100 SW10G17   30.02F FOG     WCI   8
ENNIS          MOCLDY    25  16  68 S15       30.05S WCI  12
THREE FORKS      N/A     32  32 100 S18       29.97S WCI  20
TWIN BRIDGES     N/A     25  12  57 E6        29.98F WCI  18
$$

MTZ009-010-012-014-046-048-049-054-040900-
EAST SLOPES AND CENTRAL MONTANA

CITY           SKY/WX    TMP DP  RH WIND       PRES   REMARKS
CUT BANK       CLOUDY    29  21  72 W17       29.79F WCI  17
GREAT FALLS    CLOUDY    33  21  61 SW24G37   29.84F WCI  20
MALMSTROM AFB  PTCLDY    34  23  64 SW23G31   29.86F WCI  22
HELENA         CLOUDY    36  17  46 S3        29.93F
AUGUSTA        MOCLDY    30  18  61 SW3       29.84F
BOWMANS CRNR     N/A     27  21  77 S13       29.85F WCI  17
CHOTEAU          N/A     32  18  55 S5        29.85F
CONRAD           N/A     28  21  75 SW8       29.86R WCI  20
FAIRFIELD        N/A     29  19  67 S12       29.84F WCI  19
POWER            N/A     31  20  64 SW18G25   29.82F WCI  19
RAYNESFORD     MOCLDY    36  19  51 SW28G40   29.86F WCI  23
ULM            MOCLDY    34  22  61 W13       29.89F WCI  25
$$

MTZ011-013-016-021-045-047-050-051-040900-
NORTH CENTRAL MONTANA

CITY           SKY/WX    TMP DP  RH WIND       PRES   REMARKS
HAVRE          CLEAR     29  21  72 SW9       29.82F WCI  20
LEWISTOWN      CLOUDY    31  18  58 W14       29.85F WCI  21
N BAR RANCH      N/A     32  14  47 W14G21    29.86F WCI  22
CHINOOK          N/A     30  19  64 W6        29.82F WCI  24
DENTON           N/A     34  19  54 W16G36    29.81F WCI  23
GEYSER           N/A     31  20  62 W14       29.84F WCI  21
GRASS RANGE      N/A     30  18  60 W13       29.83F WCI  20
JUDITH GAP     MOCLDY    31  18  59 W23G31    29.86F WCI  17
ROY            MOCLDY    34  17  51 MISG      29.83F
STANFORD         N/A     33  18  53 W24G30    29.84F WCI  21
WINIFRED       MOCLDY    29  19  65 MISG      29.83F
$$

MTZ017>020-022>027-061-062-040900-
NORTHEAST MONTANA

CITY           SKY/WX    TMP DP  RH WIND       PRES   REMARKS
GLASGOW        CLEAR     26  23  88 W10       29.82F WCI  16
JORDAN           N/A     22  17  81 W8        29.86S WCI  12
SIDNEY         MOCLDY    32  27  81 W17       29.80S WCI  21
WOLF POINT     CLEAR     26  23  88 SW8       29.83S WCI  18
PLENTYWOOD       N/A     30  30 100 W7        29.76S WCI  23
POPLAR           N/A     27  25  93 SW5       29.83S
SCOBEY           N/A     26  19  74 W8        29.77S WCI  18
$$

MTZ028>42-056>058-040900-
SOUTHCENTRAL AND SOUTHEAST MONTANA

CITY           SKY/WX    TMP DP  RH WIND       PRES   REMARKS
BAKER          MOCLDY    23  17  78 W5        29.85S
BILLINGS       CLOUDY    32  17  54 SW14      29.92S WCI  22
LIVINGSTON     CLOUDY    33  15  47 SW21G30   29.93F WCI  21
MILES CITY     CLEAR     28  18  66 W7        29.88S WCI  21
BIG TIMBER     CLOUDY    32  14  47 CALM      29.95F
FORSYTH          N/A     36  19  51 SW6       29.90F WCI  31
HARLOWTON      MOCLDY    31  17  55 W24       29.88F WCI  18
LAUREL           N/A     27   8  44 SW7       29.91F WCI  20
ROUNDUP          N/A     35  14  42 SW14      29.82S WCI  26
$$

REGIONAL REPORTS...DAKOTAS

CITY           SKY/WX    TMP DP  RH WIND       PRES   REMARKS
WILLISTON      LGT SNOW  33  30  88 W12       29.77S FOG     WCI  24
MINOT          CLOUDY    32  29  88 W13       29.71S WCI  22
DICKINSON      CLEAR     25  22  88 W14       29.76F WCI  13
BEACH            N/A     25  23  93 W9        29.84F WCI  15
CROSBY         CLOUDY    25  25 100 NW8       29.77R WCI  16
TIOGA          LGT SNOW  30  30 100 NW13      29.75R WCI  20
WATFORD CITY   FLURRIES  32  32 100 W8        29.77S WCI  25
BISMARCK       CLOUDY    34  31  88 W10       29.77F WCI  26
GRAND FORKS    CLOUDY    34  31  88 S14       29.82F FOG     WCI  25
FARGO          CLOUDY    35  32  88 S15G23    29.86F WCI  25
BUFFALO SD       N/A     27  21  78 W14       29.77F WCI  16
RAPID CITY     CLEAR     28  21  75 W10       29.90F WCI  19
$$

REGIONAL REPORTS...WYOMING/IDAHO/WASHINGTON

CITY           SKY/WX    TMP DP  RH WIND       PRES   REMARKS
GILLETTE       LGT SNOW  31  24  75 W17       29.94R WCI  19
SHERIDAN       CLOUDY    32  16  51 W3        29.92F
BUFFALO WY     CLOUDY    31   8  38 VRB3      29.92F
CODY           CLOUDY    34  14  43 W10       29.93F WCI  26
YELLOWSTONE LA   N/A     18  17  96 W9G17     29.99F WCI   7
IDAHO FALLS    CLOUDY    30  25  81 SW9       30.12F WCI  22
SALMON         CLOUDY    25  18  74 N5        30.07F
BOISE          CLOUDY    36  28  73 SE9       30.14F WCI  29
SPOKANE        CLOUDY    37  32  82 S18G29    29.94F WCI  27
$$

REGIONAL REPORTS...ALBERTA

CITY           SKY/WX    TMP DP  RH WIND       PRES   REMARKS
EDMONTON       CLEAR     23  14  68 SW6       29.67S WCI  16
CALGARY        MOCLDY    21  14  73 N3        29.68F
LETHBRIDGE     CLOUDY    36  19  51 W18G24    29.71F WCI  25
MEDICINE HAT   PTCLDY    25  19  80 S7        29.74F WCI  17
WATERTON GATE    N/A     30  25  80 SW17G28     N/A  WCI  18
CARDSTON         N/A     28  19  69 SW6         N/A  WCI  22
MILK RIVER       N/A     36  21  55 W21G28      N/A  WCI  24
$$

REGIONAL REPORTS...SASKATCHEWAN

CITY           SKY/WX    TMP DP  RH WIND       PRES   REMARKS
SWIFT CURRENT  CLEAR     21  18  86 SW14      29.72F WCI   8
REGINA         CLOUDY    25  23  93 NW12      29.73F WCI  14
SASKATOON      FOG       21  21 100 SW5       29.73S VSB 1/8
CYPRESS HILLS    N/A     27  18  69 W10G17      N/A  WCI  17
VAL MARIE        N/A     21  18  86 SW5         N/A
ROCKGLEN         N/A     25  21  86 W12         N/A  WCI  14
$$




USA.gov is the U.S. government's official web portal to all federal, state and local government web resources and services.